EN

Hourly Weather Ladychyn

Today, 28 July, Wednesday

Time Temperature Precipitation Wind Pressure Humidity
00:00 +21°C° 0 mm 2 mps 732 mmHg 82%
01:00 +21°C° 0 mm 2 mps 732 mmHg 85%
02:00 +20°C° 0 mm 2 mps 732 mmHg 88%
03:00 +20°C° 0 mm 2 mps 732 mmHg 88%
04:00 +20°C° 0 mm 2 mps 732 mmHg 89%
05:00 +19°C° 0 mm 2 mps 732 mmHg 89%
06:00 +22°C° 0 mm 1 mps 732 mmHg 82%
07:00 +24°C° 0 mm 1 mps 732 mmHg 76%
08:00 +25°C° 0 mm 1 mps 732 mmHg 70%
09:00 +27°C° 0 mm 1 mps 732 mmHg 64%
10:00 +28°C° 0 mm 1 mps 732 mmHg 59%
11:00 +30°C° 0 mm 2 mps 732 mmHg 53%
12:00 +30°C° 0 mm 2 mps 732 mmHg 50%
13:00 +31°C° 0 mm 2 mps 732 mmHg 48%
14:00 +33°C° 0 mm 3 mps 732 mmHg 45%
15:00 +32°C° 0 mm 2 mps 731 mmHg 46%
16:00 +32°C° 0 mm 2 mps 731 mmHg 46%
17:00 +32°C° 0 mm 1 mps 730 mmHg 47%
18:00 +30°C° 0 mm 2 mps 730 mmHg 52%
19:00 +28°C° 0 mm 2 mps 730 mmHg 58%
20:00 +26°C° 0 mm 3 mps 730 mmHg 64%
21:00 +25°C° 0.1 mm 3 mps 730 mmHg 67%
22:00 +24°C° 0.1 mm 3 mps 730 mmHg 70%
23:00 +22°C° 0.1 mm 3 mps 730 mmHg 73%

Tomorrow, 29 July, Thursday

Time Temperature Precipitation Wind Pressure Humidity
00:00 +21°C° 0 mm 3 mps 729 mmHg 74%
01:00 +21°C° 0 mm 3 mps 729 mmHg 74%
02:00 +20°C° 0 mm 3 mps 729 mmHg 75%
03:00 +20°C° 0 mm 3 mps 729 mmHg 74%
04:00 +20°C° 0 mm 2 mps 728 mmHg 72%
05:00 +20°C° 0 mm 2 mps 728 mmHg 71%
06:00 +21°C° 0 mm 2 mps 728 mmHg 68%
07:00 +24°C° 0 mm 3 mps 729 mmHg 66%
08:00 +25°C° 0 mm 3 mps 729 mmHg 63%
09:00 +26°C° 0 mm 4 mps 729 mmHg 62%
10:00 +27°C° 0 mm 5 mps 729 mmHg 62%
11:00 +28°C° 0 mm 6 mps 730 mmHg 61%
12:00 +28°C° 0 mm 6 mps 730 mmHg 60%
13:00 +28°C° 0 mm 6 mps 730 mmHg 60%
14:00 +28°C° 0 mm 6 mps 730 mmHg 59%
15:00 +27°C° 0 mm 5 mps 730 mmHg 62%
16:00 +27°C° 0 mm 5 mps 730 mmHg 64%
17:00 +26°C° 0 mm 5 mps 730 mmHg 67%
18:00 +25°C° 0.1 mm 4 mps 730 mmHg 71%
19:00 +23°C° 0.1 mm 4 mps 730 mmHg 75%
20:00 +22°C° 0.1 mm 3 mps 730 mmHg 80%
21:00 +21°C° 0 mm 3 mps 730 mmHg 82%
22:00 +20°C° 0 mm 3 mps 730 mmHg 84%
23:00 +19°C° 0 mm 2 mps 730 mmHg 86%

Day after tomorrow, 30 July, Friday

Time Temperature Precipitation Wind Pressure Humidity
00:00 +19°C° 0 mm 2 mps 731 mmHg 86%
01:00 +18°C° 0 mm 2 mps 731 mmHg 85%
02:00 +18°C° 0 mm 2 mps 731 mmHg 84%
03:00 +18°C° 0 mm 2 mps 730 mmHg 84%
04:00 +18°C° 0 mm 2 mps 730 mmHg 84%
05:00 +18°C° 0 mm 2 mps 730 mmHg 84%
06:00 +19°C° 0 mm 2 mps 730 mmHg 79%
07:00 +21°C° 0 mm 2 mps 731 mmHg 74%
08:00 +24°C° 0 mm 2 mps 731 mmHg 68%
09:00 +25°C° 0 mm 2 mps 731 mmHg 62%
10:00 +26°C° 0 mm 2 mps 731 mmHg 57%
11:00 +28°C° 0 mm 2 mps 731 mmHg 51%
12:00 +28°C° 0 mm 2 mps 731 mmHg 48%
13:00 +29°C° 0 mm 2 mps 730 mmHg 45%
14:00 +30°C° 0 mm 2 mps 730 mmHg 42%
15:00 +30°C° 0 mm 2 mps 730 mmHg 43%
16:00 +29°C° 0 mm 2 mps 730 mmHg 43%
17:00 +29°C° 0 mm 1 mps 729 mmHg 43%
18:00 +28°C° 0 mm 1 mps 729 mmHg 48%
19:00 +26°C° 0 mm 2 mps 729 mmHg 53%
20:00 +24°C° 0 mm 2 mps 729 mmHg 58%
21:00 +24°C° 0 mm 2 mps 729 mmHg 59%
22:00 +23°C° 0 mm 2 mps 729 mmHg 61%
23:00 +21°C° 0 mm 3 mps 729 mmHg 62%

31 July, Saturday

Time Temperature Precipitation Wind Pressure Humidity
00:00 +21°C° 0 mm 3 mps 729 mmHg 65%
01:00 +21°C° 0 mm 3 mps 729 mmHg 67%
02:00 +20°C° 0 mm 3 mps 728 mmHg 70%
03:00 +20°C° 0 mm 3 mps 728 mmHg 71%
04:00 +19°C° 0 mm 3 mps 728 mmHg 71%
05:00 +19°C° 0 mm 3 mps 728 mmHg 72%
06:00 +21°C° 0 mm 4 mps 728 mmHg 69%
07:00 +23°C° 0 mm 4 mps 728 mmHg 66%
08:00 +25°C° 0 mm 5 mps 728 mmHg 63%
09:00 +27°C° 0 mm 5 mps 728 mmHg 59%
10:00 +28°C° 0 mm 5 mps 728 mmHg 55%
11:00 +30°C° 0 mm 6 mps 728 mmHg 50%
12:00 +32°C° 0 mm 6 mps 727 mmHg 48%
13:00 +32°C° 0 mm 6 mps 727 mmHg 45%
14:00 +33°C° 0 mm 6 mps 727 mmHg 42%
15:00 +33°C° 0 mm 6 mps 726 mmHg 45%
16:00 +33°C° 0 mm 5 mps 726 mmHg 48%
17:00 +33°C° 0 mm 5 mps 725 mmHg 50%
18:00 +28°C° 2.2 mm 5 mps 726 mmHg 64%
19:00 +23°C° 2.2 mm 5 mps 727 mmHg 78%
20:00 +19°C° 2.2 mm 5 mps 727 mmHg 92%
21:00 +18°C° 0.4 mm 4 mps 728 mmHg 93%
22:00 +18°C° 0.4 mm 3 mps 729 mmHg 94%
23:00 +17°C° 0.4 mm 2 mps 729 mmHg 95%

1 August, Sunday

Time Temperature Precipitation Wind Pressure Humidity
00:00 +17°C° 0 mm 3 mps 729 mmHg 96%
01:00 +16°C° 0 mm 3 mps 729 mmHg 96%
02:00 +16°C° 0 mm 3 mps 729 mmHg 97%
03:00 +16°C° 0 mm 2 mps 729 mmHg 96%
04:00 +16°C° 0 mm 2 mps 729 mmHg 95%
05:00 +16°C° 0 mm 1 mps 729 mmHg 94%
06:00 +18°C° 0 mm 1 mps 729 mmHg 88%
07:00 +20°C° 0 mm 1 mps 729 mmHg 81%
08:00 +20°C° 0 mm 0 mps 730 mmHg 75%
09:00 +23°C° 0 mm 1 mps 730 mmHg 67%
10:00 +24°C° 0 mm 2 mps 730 mmHg 60%
11:00 +26°C° 0 mm 3 mps 730 mmHg 53%
12:00 +27°C° 0 mm 3 mps 729 mmHg 52%
13:00 +28°C° 0 mm 4 mps 729 mmHg 50%
14:00 +28°C° 0 mm 4 mps 729 mmHg 49%
15:00 +28°C° 0 mm 5 mps 728 mmHg 51%
16:00 +28°C° 0 mm 5 mps 727 mmHg 54%
17:00 +28°C° 0 mm 5 mps 727 mmHg 57%
18:00 +25°C° 2.9 mm 5 mps 727 mmHg 69%
19:00 +21°C° 2.9 mm 4 mps 727 mmHg 81%
20:00 +18°C° 2.9 mm 4 mps 727 mmHg 93%
21:00 +18°C° 0 mm 4 mps 726 mmHg 94%
22:00 +18°C° 0 mm 4 mps 726 mmHg 94%
23:00 +18°C° 0 mm 3 mps 726 mmHg 95%

2 August, Monday

Time Temperature Precipitation Wind Pressure Humidity
00:00 +18°C° 0 mm 4 mps 725 mmHg 95%
01:00 +18°C° 0 mm 4 mps 725 mmHg 94%
02:00 +17°C° 0 mm 4 mps 725 mmHg 94%
03:00 +17°C° 0 mm 4 mps 725 mmHg 94%
04:00 +17°C° 0 mm 3 mps 725 mmHg 95%
05:00 +17°C° 0 mm 3 mps 725 mmHg 95%
06:00 +17°C° 0 mm 4 mps 726 mmHg 93%
07:00 +17°C° 0 mm 5 mps 726 mmHg 92%
08:00 +17°C° 0 mm 5 mps 727 mmHg 90%
09:00 +17°C° 0 mm 5 mps 727 mmHg 87%
10:00 +19°C° 0 mm 5 mps 728 mmHg 84%
11:00 +19°C° 0 mm 5 mps 728 mmHg 81%
12:00 +20°C° 0 mm 5 mps 728 mmHg 74%
13:00 +21°C° 0 mm 5 mps 729 mmHg 67%
14:00 +22°C° 0 mm 5 mps 729 mmHg 61%
15:00 +23°C° 0 mm 5 mps 729 mmHg 60%
16:00 +23°C° 0 mm 5 mps 729 mmHg 59%
17:00 +23°C° 0 mm 5 mps 729 mmHg 58%
18:00 +21°C° 0 mm 4 mps 729 mmHg 65%
19:00 +20°C° 0 mm 2 mps 729 mmHg 71%
20:00 +19°C° 0 mm 1 mps 730 mmHg 77%
21:00 +19°C° 0 mm 1 mps 730 mmHg 79%
22:00 +18°C° 0 mm 1 mps 730 mmHg 81%
23:00 +17°C° 0 mm 2 mps 730 mmHg 82%
Show more